Location: Dammartin
(48.9032°N, 1.6195°E)
Time: 15:32:59
(UTC+00:00)

IRIDIUM 104 - Pass Details

Date: 03 February 2023
Orbit: 776 x 779 km, 86.4° (Epoch: 30 March)

Event Time Altitude Azimuth Distance (km) Brightness Sun altitude
Rises 18:25:18 0° 358° (N) 3,278 7.5 -15.2°
Reaches altitude 10° 18:27:42 10° 1° (N) 2,345 6.7 -15.6°
Maximum altitude 18:32:55 65° 84° (E) 859 4.3 -16.5°
Drops below altitude 10° 18:38:05 10° 166° (SSE) 2,326 6.7 -17.3°
Sets 18:40:27 0° 169° (S) 3,249 7.5 -17.7°
